[[{"header":{"parameterUnit":"m.s-1","parameterCategory":1,"la1":30.2991,"la2":30.254,"lo1":-89.0895,"lo2":-89.0444,"dy":0.0017,"dx":0.0017,"nx":28,"ny":28,"refTime":"2025-09-08T03:00:00:Z","depth":0,"parameterNumber":2,"parameterNumberName":"U-component_of_WINDS"},"data":[0,0,0,0,0,0,0,0,0,0,0,0,0,0,0,0,0,0,0,0,0,0,0,0,0,0,0,0,0,0,0,0,0,0,0,0,0,0,0,0,0,0,0,0,0,0,0,0,0,0,0,0,0,0,0,0,0,0,-1.6757,-1.6757,0,-1.6717,-1.6716,-1.6716,-1.6609,-1.6607,-1.6604,-1.6602,-1.6564,-1.6565,-1.6566,0,0,0,0,0,0,0,0,0,0,0,0,0,-1.6743,-1.6744,-1.6757,-1.6757,-1.6756,-1.6717,-1.6716,-1.6716,-1.6609,-1.6607,-1.6604,-1.6601,-1.6563,-1.6564,-1.6566,0,0,0,0,0,0,0,0,0,0,0,0,0,-1.6731,-1.6744,-1.6757,-1.6698,-1.6693,-1.6717,-1.6716,-1.6716,-1.661,-1.6606,-1.6603,-1.66,-1.6563,-1.6564,-1.6566,-1.6645,0,0,-1.6571,-1.6572,0,0,0,0,0,0,0,0,-1.6732,-1.6732,-1.6707,-1.6702,-1.6696,-1.6664,-1.6697,-1.6692,-1.6611,-1.6641,-1.6602,-1.6598,-1.66,-1.6598,-1.6598,-1.6643,-1.6642,-1.6571,-1.6572,-1.6573,-1.6573,0,0,0,0,0,0,0,-1.6733,-1.6733,-1.6741,-1.6707,-1.67,-1.6674,-1.6669,-1.6696,-1.6641,-1.6639,-1.6631,-1.6627,-1.6596,-1.6597,-1.6597,-1.6641,-1.6571,-1.6573,-1.6574,-1.6574,-1.6748,-1.6751,0,0,0,0,0,0,-1.6742,-1.6734,-1.6742,-1.674,-1.6706,-1.6677,-1.6671,-1.6678,-1.664,-1.6631,-1.663,-1.6622,-1.6596,-1.6595,-1.6595,-1.6685,-1.6573,-1.6575,-1.6575,-1.6744,-1.6748,-1.6752,0,0,0,0,0,0,-1.6742,-1.6744,-1.6744,-1.6735,-1.6733,-1.6681,-1.669,-1.6679,-1.668,-1.6634,-1.6623,-1.6641,-1.6593,-1.6593,-1.6633,-1.6682,-1.6575,-1.6577,-1.674,-1.6745,-1.675,-1.6866,0,0,0,0,0,0,-1.6742,-1.6744,-1.6774,-1.6736,-1.6734,-1.6783,-1.6693,-1.6681,-1.6683,-1.6672,-1.6641,-1.6633,-1.659,-1.6631,-1.6635,-1.6683,-1.6578,-1.6735,-1.6742,-1.6749,-1.6858,-1.6875,-1.6889,0,0,0,0,0,-1.6742,-1.6809,-1.6776,-1.6778,-1.677,-1.6786,-1.6785,-1.6734,-1.6687,-1.6716,-1.6686,-1.6634,-1.6676,-1.6636,-1.6639,-1.6688,-1.6732,-1.674,-1.6748,-1.6851,-1.6871,-1.6889,0,0,0,0,0,0,-1.6855,-1.6803,-1.6766,-1.6823,-1.6809,-1.6768,-1.6804,-1.6758,-1.6758,-1.6749,-1.6686,-1.668,-1.6729,-1.6712,-1.6669,-1.6762,-1.6695,-1.6704,-1.6772,-1.6791,-1.6807,-1.6811,-1.6579,0,0,0,0,0,-1.6886,-1.6904,-1.6857,-1.6912,-1.6907,-1.6857,-1.6862,-1.6823,-1.6808,-1.6802,-1.6775,-1.6762,-1.6772,-1.678,-1.6787,-1.6854,-1.6846,-1.6889,-1.6905,-1.6918,-1.6927,-1.6961,-1.698,-1.6779,-1.6779,-1.6779,0,0,-1.6952,-1.6926,-1.6941,-1.6934,-1.6919,-1.6939,-1.6853,-1.6878,-1.6892,-1.6806,-1.6842,-1.6822,-1.6803,-1.6857,-1.688,-1.6845,-1.698,-1.6928,-1.6939,-1.6941,-1.6971,-1.699,-1.7007,-1.6784,-1.6783,-1.6783,0,0,-1.7082,-1.7063,-1.7106,-1.7093,-1.7071,-1.7036,-1.7047,-1.7012,-1.6995,-1.703,-1.6966,-1.6981,-1.7,-1.6989,-1.6986,-1.7109,-1.7061,-1.7113,-1.7197,-1.723,-1.7246,-1.726,-1.7304,-1.7321,-1.7122,-1.7122,-1.7122,0,-1.7167,-1.7193,-1.7135,-1.7163,-1.7162,-1.7083,-1.7127,-1.7116,-1.7099,-1.71,-1.706,-1.7081,-1.7063,-1.7113,-1.7143,-1.7143,-1.7153,-1.7118,-1.7248,-1.7261,-1.7273,-1.7315,-1.7332,-1.7129,-1.7128,-1.7127,-1.7127,0,-1.7298,-1.7317,-1.7355,-1.7338,-1.7341,-1.7377,-1.7324,-1.7334,-1.7294,-1.7264,-1.7301,-1.7276,-1.7276,-1.7284,-1.7247,-1.7329,-1.7308,-1.7259,-1.7191,-1.73,-1.7338,-1.7354,-1.7138,-1.7136,-1.7134,-1.7132,0,0,-1.7502,-1.745,-1.7465,-1.7456,-1.7424,-1.7438,-1.747,-1.7469,-1.7479,-1.7468,-1.7494,-1.751,-1.7464,-1.7461,-1.7421,-1.745,-1.7549,-1.7398,-1.7396,-1.7428,-1.7638,-1.7676,-1.7696,-1.7516,-1.7519,-1.7521,-1.764,0,-1.7624,-1.7676,-1.7623,-1.7685,-1.7702,-1.7626,-1.7653,-1.7637,-1.761,-1.762,-1.7589,-1.7602,-1.754,-1.7538,-1.7563,-1.7532,-1.7591,-1.7522,-1.754,-1.7542,-1.7549,-1.7716,-1.7756,-1.787,-1.7655,-1.7657,-1.7659,0,-1.7776,-1.7771,-1.7834,-1.7798,-1.7803,-1.7829,-1.7822,-1.7833,-1.7813,-1.779,-1.7786,-1.7736,-1.7765,-1.7696,-1.7735,-1.7689,-1.7693,-1.7679,-1.7682,-1.7683,-1.7609,-1.7723,-1.7905,-1.7923,-1.7682,-1.768,-1.7678,0,-1.7919,-1.7928,-1.7967,-1.7961,-1.7919,-1.7939,-1.7922,-1.7899,-1.7901,-1.7895,-1.7896,-1.7894,-1.7894,-1.7894,-1.7845,-1.78,-1.789,-1.7818,-1.7873,-1.7875,-1.7898,-1.7897,-1.8085,-1.7897,-1.7897,-1.7897,-1.7896,0,-1.8063,-1.8105,-1.803,-1.8055,-1.8099,-1.8037,-1.8083,-1.8059,-1.8038,-1.8056,-1.799,-1.8009,-1.7943,-1.7954,-1.7916,-1.7954,-1.7954,-1.7937,-1.7927,-1.7944,-1.7947,-1.7948,-1.7939,-1.7901,-1.79,-1.7899,-1.7899,0,-1.8232,-1.8183,-1.822,-1.8176,-1.8166,-1.8201,-1.8164,-1.8184,-1.8151,-1.8175,-1.8177,-1.8125,-1.8135,-1.8085,-1.8087,-1.8061,-1.8119,-1.8094,-1.8126,-1.8119,-1.8178,-1.8173,-1.8374,-1.8397,-1.8194,-1.8196,-1.8197,0,-1.8328,-1.8358,-1.8317,-1.8324,-1.831,-1.8322,-1.8323,-1.8263,-1.8267,-1.8245,-1.8269,-1.8273,-1.8273,-1.8293,-1.8256,-1.8256,-1.8232,-1.8302,-1.8232,-1.8248,-1.8234,-1.8234,-1.8237,-1.8318,-1.832,-1.8322,-1.8324,0,-1.8504,-1.8478,-1.8482,-1.8477,-1.848,-1.8474,-1.8463,-1.8472,-1.8407,-1.8415,-1.8423,-1.8424,-1.8424,-1.8429,-1.8422,-1.8405,-1.8354,-1.8346,-1.8359,-1.8378,-1.8395,-1.8387,-1.8168,-1.8342,-1.834,-1.8339,-1.8338,-1.8337,-1.864,-1.8663,-1.8638,-1.8644,-1.8629,-1.862,-1.8636,-1.8604,-1.861,-1.8605,-1.8569,-1.8584,-1.8562,-1.8546,-1.8534,-1.8545,-1.8512,-1.8531,-1.8536,-1.8542,-1.8553,-1.8392,-1.8543,-1.8543,-1.8542,-1.8542,-1.8541,0,-1.8814,-1.8793,-1.8799,-1.8785,-1.879,-1.8739,-1.8724,-1.8732,-1.8746,-1.8728,-1.8729,-1.8739,-1.8743,-1.8705,-1.8704,-1.872,-1.8697,-1.8722,-1.8722,-1.8719,-1.8582,-1.8571,-1.8741,-1.8741,-1.8741,-1.8741,-1.8741,-1.8741,-1.8905,-1.8942,-1.8912,-1.894,-1.8918,-1.8932,-1.8928,-1.8919,-1.8905,-1.8918,-1.8921,-1.8895,-1.8869,-1.8865,-1.8867,-1.8855,-1.8859,-1.8893,-1.8874,-1.8747,-1.8728,-1.871,-1.8699,-1.8893,-1.8894,-1.9009,-1.901,-1.9011]},{"header":{"parameterUnit":"m.s-1","parameterCategory":1,"la1":30.2991,"la2":30.254,"lo1":-89.0895,"lo2":-89.0444,"dy":0.0017,"dx":0.0017,"nx":28,"ny":28,"refTime":"2025-09-08T03:00:00:Z","depth":0,"parameterNumber":3,"parameterNumberName":"V-component_of_WINDS"},"data":[0,0,0,0,0,0,0,0,0,0,0,0,0,0,0,0,0,0,0,0,0,0,0,0,0,0,0,0,0,0,0,0,0,0,0,0,0,0,0,0,0,0,0,0,0,0,0,0,0,0,0,0,0,0,0,0,0,0,-6.6778,-6.6779,0,-6.6826,-6.6826,-6.6827,-6.671,-6.6706,-6.6702,-6.6699,-6.6744,-6.6748,-6.6753,0,0,0,0,0,0,0,0,0,0,0,0,0,-6.6581,-6.6586,-6.6778,-6.6779,-6.678,-6.6826,-6.6826,-6.6827,-6.671,-6.6706,-6.6701,-6.6697,-6.6742,-6.6748,-6.6753,0,0,0,0,0,0,0,0,0,0,0,0,0,-6.6652,-6.6587,-6.6778,-6.6727,-6.6723,-6.6826,-6.6826,-6.6827,-6.6711,-6.6706,-6.67,-6.6695,-6.674,-6.6747,-6.6754,-6.6907,0,0,-6.6775,-6.6778,0,0,0,0,0,0,0,0,-6.6648,-6.6659,-6.6734,-6.6731,-6.6726,-6.6756,-6.6773,-6.6854,-6.6713,-6.6716,-6.6699,-6.6692,-6.6752,-6.6758,-6.6779,-6.6909,-6.6911,-6.6776,-6.678,-6.6783,-6.6785,0,0,0,0,0,0,0,-6.6643,-6.6656,-6.6797,-6.6735,-6.6731,-6.67,-6.6704,-6.6788,-6.6764,-6.6715,-6.6707,-6.6714,-6.6749,-6.6772,-6.6779,-6.6912,-6.6776,-6.6782,-6.6786,-6.6789,-6.7169,-6.7175,0,0,0,0,0,0,-6.6646,-6.6653,-6.6795,-6.6798,-6.6673,-6.6708,-6.6712,-6.6752,-6.6763,-6.6759,-6.6719,-6.6708,-6.6763,-6.6771,-6.678,-6.6959,-6.6783,-6.6789,-6.6793,-6.7163,-6.7171,-6.7177,0,0,0,0,0,0,-6.6642,-6.6659,-6.6793,-6.6724,-6.6738,-6.6717,-6.6763,-6.6756,-6.6779,-6.6766,-6.676,-6.6747,-6.6759,-6.677,-6.6876,-6.6959,-6.6792,-6.6799,-6.7156,-6.7166,-6.7174,-6.732,0,0,0,0,0,0,-6.6637,-6.6659,-6.6718,-6.6726,-6.6743,-6.6891,-6.6768,-6.6761,-6.6792,-6.6779,-6.6791,-6.6788,-6.6756,-6.6867,-6.6883,-6.6966,-6.6804,-6.7149,-6.716,-6.7171,-6.7308,-6.7333,-6.7354,0,0,0,0,0,-6.663,-6.6757,-6.6722,-6.674,-6.6817,-6.6896,-6.6906,-6.6867,-6.6799,-6.6858,-6.6849,-6.6787,-6.6948,-6.6879,-6.6896,-6.6982,-6.7143,-6.7157,-6.717,-6.7297,-6.7328,-6.7354,0,0,0,0,0,0,-6.6758,-6.6757,-6.6718,-6.6851,-6.6875,-6.6876,-6.6949,-6.6901,-6.6943,-6.6929,-6.6878,-6.6882,-6.6997,-6.7,-6.6923,-6.713,-6.7034,-6.7051,-6.7124,-6.7153,-6.7176,-6.7173,-6.681,0,0,0,0,0,-6.6802,-6.6869,-6.6863,-6.6981,-6.6995,-6.6971,-6.7004,-6.6972,-6.6994,-6.7003,-6.7002,-6.7024,-6.7079,-6.7116,-6.7166,-6.7308,-6.7308,-6.7375,-6.7399,-6.7418,-6.7433,-6.7507,-6.7536,-6.7221,-6.7221,-6.7221,0,0,-6.6893,-6.6901,-6.6946,-6.7007,-6.7022,-6.709,-6.698,-6.7057,-6.7106,-6.7014,-6.7114,-6.7115,-6.7136,-6.726,-6.7315,-6.7266,-6.7521,-6.7435,-6.745,-6.7455,-6.7524,-6.7554,-6.758,-6.723,-6.7228,-6.7227,0,0,-6.7094,-6.7107,-6.7206,-6.7223,-6.7247,-6.723,-6.7254,-6.7263,-6.726,-6.736,-6.7292,-6.7349,-6.7445,-6.7463,-6.7485,-6.7692,-6.7636,-6.7709,-6.7831,-6.7904,-6.7928,-6.795,-6.8023,-6.805,-6.7725,-6.7726,-6.7726,0,-6.7204,-6.7305,-6.7263,-6.7345,-6.7374,-6.7294,-6.7393,-6.7411,-6.745,-6.7471,-6.7416,-6.7535,-6.7543,-6.767,-6.7721,-6.7741,-6.7766,-6.7708,-6.7929,-6.795,-6.797,-6.8038,-6.8066,-6.7734,-6.7733,-6.7732,-6.7731,0,-6.7439,-6.751,-6.7587,-6.7628,-6.7665,-6.7755,-6.7725,-6.7767,-6.7732,-6.772,-6.7822,-6.783,-6.788,-6.7908,-6.7874,-6.803,-6.7999,-6.7937,-6.7839,-6.8009,-6.8073,-6.8099,-6.7747,-6.7743,-6.7741,-6.7739,0,0,-6.7721,-6.7737,-6.7766,-6.7783,-6.7804,-6.7857,-6.7943,-6.7993,-6.803,-6.8059,-6.8128,-6.8211,-6.8155,-6.8179,-6.8146,-6.821,-6.8373,-6.814,-6.814,-6.8183,-6.8543,-6.8589,-6.862,-6.8336,-6.8341,-6.8345,-6.8541,0,-6.7919,-6.8068,-6.8032,-6.8179,-6.8244,-6.8169,-6.8243,-6.8263,-6.8254,-6.8306,-6.8295,-6.8355,-6.8276,-6.829,-6.835,-6.834,-6.8444,-6.8326,-6.8399,-6.8402,-6.8396,-6.8654,-6.8702,-6.8887,-6.8566,-6.857,-6.8573,0,-6.817,-6.821,-6.8364,-6.8372,-6.8398,-6.8466,-6.8508,-6.856,-6.8579,-6.8568,-6.8596,-6.8551,-6.8633,-6.8535,-6.8648,-6.8568,-6.8596,-6.8596,-6.8602,-6.8607,-6.8498,-6.8665,-6.8945,-6.8973,-6.8612,-6.8609,-6.8606,0,-6.8359,-6.8451,-6.8555,-6.8572,-6.8585,-6.8634,-6.8642,-6.8657,-6.8689,-6.8725,-6.8745,-6.879,-6.8815,-6.8851,-6.8818,-6.875,-6.8935,-6.8835,-6.8927,-6.8928,-6.8969,-6.8967,-6.9258,-6.8989,-6.8988,-6.8988,-6.8987,0,-6.8583,-6.868,-6.864,-6.8704,-6.881,-6.8767,-6.8872,-6.887,-6.8884,-6.8945,-6.8883,-6.8941,-6.8894,-6.8948,-6.8923,-6.9019,-6.9031,-6.9023,-6.9015,-6.9029,-6.903,-6.9045,-6.9031,-6.8995,-6.8994,-6.8992,-6.8991,0,-6.8813,-6.8791,-6.8898,-6.8902,-6.8906,-6.8983,-6.8985,-6.9044,-6.903,-6.9108,-6.9123,-6.9102,-6.9161,-6.9132,-6.9194,-6.9177,-6.9302,-6.9277,-6.9296,-6.9289,-6.9383,-6.9374,-6.9693,-6.9732,-6.9439,-6.9442,-6.9444,0,-6.8957,-6.903,-6.9042,-6.9079,-6.9092,-6.9152,-6.9184,-6.9144,-6.918,-6.9208,-6.9263,-6.9318,-6.9359,-6.9458,-6.9447,-6.9493,-6.9469,-6.9577,-6.9475,-6.9486,-6.9469,-6.9465,-6.9471,-6.9598,-6.9601,-6.9604,-6.9606,0,-6.9216,-6.9201,-6.9251,-6.9298,-6.9338,-6.9373,-6.9401,-6.9435,-6.9395,-6.9439,-6.95,-6.9532,-6.9596,-6.965,-6.9691,-6.9696,-6.9645,-6.9639,-6.9662,-6.9676,-6.9684,-6.968,-6.9351,-6.9631,-6.9629,-6.9627,-6.9625,-6.9624,-6.9406,-6.9467,-6.9485,-6.9543,-6.956,-6.9588,-6.9643,-6.9637,-6.9687,-6.9737,-6.971,-6.9781,-6.9797,-6.9847,-6.9859,-6.9913,-6.987,-6.9905,-6.9913,-6.9922,-6.9934,-6.9676,-6.9921,-6.992,-6.9919,-6.9918,-6.9918,0,-6.966,-6.9668,-6.9722,-6.9764,-6.9809,-6.9758,-6.9787,-6.9827,-6.9891,-6.9912,-6.9954,-7.0024,-7.0076,-7.0069,-7.0117,-7.0161,-7.0139,-7.0175,-7.0171,-7.0173,-6.9971,-6.9945,-7.0192,-7.0192,-7.0192,-7.0192,-7.0192,-7.0192,-6.9798,-6.9898,-6.9885,-6.9993,-6.9999,-7.0069,-7.009,-7.0115,-7.0131,-7.0212,-7.0256,-7.0252,-7.0261,-7.0308,-7.0354,-7.035,-7.037,-7.0415,-7.0403,-7.0214,-7.0187,-7.0161,-7.0137,-7.042,-7.042,-7.06,-7.0602,-7.0603]}]]